Wind_Speed
2 3 3 4 4 4 4 4 4 5 5 6 6 7 7 8 9 10 10 10 10 10 11 10 10 10 9 9 8 8 7 7 6 6 6 5 5 4 4 3 3 3 3
3 4 4 4 5 5 5 5 6 6 7 7 8 8 9 9 10 11 11 11 11 11 12 11 11 11 10 10 10 9 8 8 7 7 6 6 5 5 5 4 4 4 4
5 5 5 6 6 6 6 7 7 8 8 9 9 10 10 11 11 12 12 12 12 12 12 12 12 12 11 11 11 10 10 9 9 8 8 7 6 6 6 5 5 5 5
6 7 7 7 7 7 8 8 9 9 9 10 10 11 11 12 13 13 13 13 14 13 13 14 13 13 13 13 12 12 11 11 10 9 9 8 8 8 7 7 7 6 6
8 8 8 8 8 8 9 9 10 10 10 11 12 12 13 13 14 14 15 15 15 15 15 15 15 15 14 14 13 13 12 12 12 11 10 9 9 9 9 8 8 8 7
9 9 10 9 9 9 10 10 11 11 12 12 13 14 14 15 15 16 16 16 16 16 17 17 16 16 16 15 15 14 14 13 13 12 11 11 11 10 10 10 10 9 9
10 11 11 11 11 10 11 11 12 13 13 14 14 15 16 16 17 17 17 18 18 18 18 18 18 18 17 17 16 15 15 14 14 13 13 12 12 12 11 11 11 11 10
12 12 12 11 11 12 12 13 13 14 15 15 15 16 16 17 18 18 18 19 19 20 19 19 20 19 19 19 18 17 16 16 15 15 15 14 14 14 13 12 12 12 12
12 12 12 13 13 13 13 14 15 15 16 16 16 17 18 18 19 19 19 19 20 20 20 20 20 20 20 20 19 19 18 17 17 16 16 16 15 15 14 14 14 14 14
13 14 14 14 14 14 14 14 15 16 16 17 17 18 18 19 19 20 20 20 21 22 22 22 21 21 21 21 20 20 20 19 18 18 18 17 17 16 16 16 16 15 15
14 15 15 14 14 14 14 15 16 16 17 17 17 19 19 20 20 21 21 22 23 23 23 23 23 23 22 21 21 21 21 21 20 20 20 19 19 18 18 17 17 17 16
15 15 14 14 14 15 16 16 17 18 18 19 19 20 20 21 22 22 22 23 24 24 25 24 24 24 24 24 24 23 23 22 22 22 21 20 20 20 20 19 19 19 18
14 14 14 14 15 16 17 18 18 19 19 19 19 20 21 22 22 23 23 23 24 24 25 26 26 26 25 25 25 24 24 23 23 23 23 22 22 22 21 21 21 21 20
14 14 16 16 16 17 18 19 19 19 20 20 20 21 22 22 23 23 23 23 24 25 25 26 27 26 26 25 25 25 24 24 24 24 24 24 23 23 23 23 23 22 22
15 16 17 17 17 18 19 19 20 20 20 21 22 23 23 22 23 23 23 23 24 25 25 26 27 26 26 26 26 26 26 24 24 24 24 24 24 24 24 24 24 23 24
15 16 17 17 18 18 19 20 21 21 21 22 23 23 23 23 23 23 24 24 25 25 25 26 27 27 27 28 28 27 26 26 26 26 25 25 25 25 25 24 25 25 25
17 17 17 18 18 19 20 21 22 22 22 22 22 22 23 24 25 25 24 25 26 25 26 26 26 28 28 27 27 27 27 27 27 27 27 26 26 26 25 25 25 25 25
17 18 18 19 19 19 21 22 23 23 23 23 23 23 24 24 25 25 25 25 26 27 26 26 27 27 28 27 28 28 28 28 28 28 28 28 27 26 26 26 26 26 26
17 18 18 18 19 20 21 22 22 23 23 23 23 23 24 25 25 25 24 25 26 27 27 27 27 28 29 29 29 28 28 28 28 29 29 29 28 27 26 26 27 27 27
18 18 19 19 20 20 21 23 23 23 23 24 24 24 24 24 25 25 25 26 26 28 28 28 29 28 29 29 30 29 28 29 29 29 29 29 29 28 27 27 27 28 28
20 20 20 20 21 22 22 23 23 23 23 24 25 25 25 25 25 26 27 27 28 28 29 29 29 29 30 30 30 30 30 30 30 30 29 29 28 28 28 28 28 28 28
21 21 21 21 22 23 23 23 23 22 23 24 25 25 26 25 26 26 27 28 29 29 30 30 30 30 30 30 30 30 30 30 30 30 30 29 29 29 29 29 28 28 28
22 22 23 23 23 23 22 23 23 23 24 25 26 26 26 26 27 27 28 29 30 30 30 30 30 30 30 31 31 30 30 30 31 31 31 31 30 31 30 29 29 28 28
22 22 22 23 24 24 24 24 24 24 24 25 25 26 27 28 28 28 29 29 30 30 31 30 30 30 29 29 30 30 30 30 31 31 31 32 32 32 32 31 31 31 30
21 22 22 23 23 22 22 23 24 24 25 25 26 26 27 28 28 29 29 29 29 30 30 30 29 28 28 29 29 30 30 30 30 31 32 33 33 32 32 32 32 32 32
21 21 21 22 22 22 22 23 24 24 25 25 25 26 27 28 28 29 29 29 29 29 29 29 28 28 28 28 29 29 29 30 30 31 31 32 33 33 33 32 32 33 33
Wind_Direction
331 316 315 313 314 317 324 330 333 334 331 330 329 327 324 321 318 316 316 315 314 313 313 314 314 313 314 316 317 318 316 313 313 311 308 308 309 307 301 291 280 270 263
303 299 298 299 300 305 311 316 319 319 319 320 318 317 316 315 313 310 309 308 308 308 309 309 309 308 309 310 310 311 311 309 305 301 297 295 295 293 289 284 274 263 259
299 297 292 294 296 302 307 309 310 310 309 309 310 310 308 308 307 306 304 305 305 304 305 305 305 304 303 304 303 302 303 302 299 295 289 286 285 283 279 275 271 267 260
294 293 288 288 292 298 302 303 304 305 304 303 302 303 302 302 301 300 299 300 301 301 301 300 300 299 298 298 298 297 296 294 295 292 287 282 280 279 275 271 268 267 263
289 288 285 285 290 295 295 297 298 299 299 300 298 297 297 298 298 297 296 296 297 297 297 297 296 295 294 293 292 290 291 290 289 287 283 279 276 274 272 269 267 265 261
288 284 281 280 285 290 290 293 295 296 296 296 295 293 293 294 294 294 293 292 292 293 293 293 292 291 290 289 288 286 286 286 285 283 281 278 274 272 270 267 267 265 262
281 279 278 280 285 289 290 289 292 294 294 293 292 291 291 291 291 291 291 288 287 287 289 290 289 289 287 285 284 283 283 283 281 280 279 278 275 273 270 267 265 267 262
278 277 278 279 281 284 286 288 290 291 292 292 290 290 290 290 288 287 288 288 287 285 286 287 287 286 285 283 281 280 279 280 280 279 278 278 276 273 271 269 267 266 263
275 275 277 278 282 283 286 288 288 290 290 289 289 289 289 289 288 285 284 285 286 285 285 286 286 283 282 282 281 279 277 276 277 277 277 276 275 273 270 268 266 265 264
274 274 276 279 280 283 284 287 288 290 291 290 290 290 290 288 288 285 282 282 283 283 283 284 283 283 281 281 280 279 277 274 273 273 274 274 272 271 269 268 265 265 264
274 274 278 279 280 282 284 286 287 289 290 290 290 289 289 287 286 284 281 280 280 280 280 281 281 281 279 280 280 279 278 275 273 272 271 271 270 269 268 266 264 264 263
278 275 280 282 280 281 284 285 285 287 288 288 289 288 287 286 283 280 282 281 280 278 276 278 279 279 278 276 277 276 276 277 274 273 271 268 267 268 267 265 263 262 262
279 276 277 280 280 280 283 285 286 286 287 286 287 288 286 286 286 281 281 282 280 277 275 276 277 277 276 276 275 274 275 275 274 272 271 269 267 265 265 264 263 260 260
277 273 273 275 278 280 282 284 286 286 287 286 287 286 288 286 286 284 282 282 282 280 276 275 275 275 273 273 274 274 274 273 272 271 268 267 267 265 265 263 263 260 258
277 273 272 274 278 280 281 283 284 286 286 287 288 288 287 286 286 284 282 282 281 280 278 276 275 275 274 273 273 273 272 271 270 268 267 268 268 266 264 262 262 261 258
275 272 271 274 278 281 282 284 285 285 286 288 289 288 287 286 287 286 284 283 282 282 281 277 275 274 275 275 272 272 271 270 269 267 266 267 267 266 263 262 262 260 257
278 276 272 272 277 281 282 284 285 284 285 288 290 290 289 288 286 286 285 284 282 282 283 281 278 275 275 273 272 271 270 270 270 269 267 266 265 265 263 261 260 259 257
282 278 273 273 276 279 283 284 285 286 287 287 288 290 288 288 287 286 286 284 283 283 283 281 279 276 275 273 271 272 271 269 268 267 267 267 266 265 263 262 260 258 256
285 281 279 279 280 281 285 287 288 288 287 287 287 289 288 287 288 286 286 286 285 283 283 281 278 277 275 273 271 272 270 269 268 266 265 264 265 264 262 261 259 257 255
285 282 281 284 284 283 285 286 288 289 288 288 287 289 289 287 287 286 286 286 286 284 284 281 278 276 275 273 272 271 270 270 268 266 266 265 264 262 260 259 259 257 255
285 284 285 287 288 286 285 286 286 288 287 286 287 288 289 288 288 287 286 286 286 284 283 283 278 276 275 273 272 270 269 268 268 267 266 264 262 260 260 259 258 258 257
286 284 288 290 289 287 286 285 284 287 287 288 288 289 289 289 289 289 289 287 285 284 284 283 280 277 275 274 271 269 267 266 265 265 263 261 260 259 259 258 258 258 258
290 289 290 290 290 286 285 284 287 287 286 288 289 289 289 290 291 291 291 288 286 285 285 283 281 279 276 273 271 269 268 265 264 263 262 260 259 258 257 256 256 256 256
292 293 292 291 290 286 284 287 288 288 288 289 290 290 290 291 293 293 292 288 287 286 285 283 282 280 277 275 272 270 269 267 264 261 261 259 258 257 256 256 256 255 255
293 293 293 292 289 286 287 288 289 289 288 289 290 291 293 294 294 294 293 290 288 287 286 283 282 280 277 276 274 271 269 267 264 261 260 259 258 257 257 256 256 255 255
296 294 292 291 289 288 290 291 290 289 289 289 290 291 293 294 295 294 294 292 291 290 288 285 283 281 280 277 275 273 270 267 265 263 262 260 260 259 258 256 256 256 256
Height
5901 5901 5901 5901 5901 5901 5900 5900 5899 5899 5900 5900 5900 5900 5900 5900 5900 5900 5899 5899 5899 5898 5898 5897 5897 5896 5896 5895 5895 5894 5893 5893 5892 5892 5891 5891 5891 5891 5891 5891 5891 5891 5891
5901 5901 5901 5900 5900 5900 5900 5899 5899 5899 5899 5899 5899 5899 5899 5899 5899 5899 5898 5898 5898 5897 5897 5897 5896 5896 5895 5894 5894 5893 5893 5892 5892 5891 5891 5891 5891 5890 5891 5890 5890 5890 5890
5900 5900 5900 5900 5900 5899 5899 5898 5898 5898 5898 5898 5898 5897 5897 5897 5897 5897 5897 5897 5896 5896 5895 5895 5895 5894 5894 5893 5893 5892 5892 5891 5891 5890 5890 5890 5890 5890 5890 5890 5890 5890 5889
5899 5899 5899 5899 5899 5898 5898 5897 5897 5897 5897 5896 5896 5896 5896 5896 5896 5895 5895 5895 5894 5894 5894 5893 5893 5893 5892 5892 5891 5891 5890 5890 5889 5889 5889 5888 5888 5888 5888 5888 5888 5888 5889
5898 5898 5898 5898 5897 5897 5896 5896 5896 5895 5895 5895 5895 5894 5894 5894 5894 5893 5893 5893 5892 5892 5891 5891 5891 5890 5890 5890 5890 5889 5889 5888 5888 5887 5887 5887 5887 5887 5887 5887 5887 5887 5887
5897 5897 5897 5896 5896 5895 5894 5894 5894 5893 5893 5893 5892 5892 5892 5892 5891 5891 5891 5890 5890 5889 5889 5888 5888 5888 5887 5887 5887 5887 5887 5886 5886 5886 5885 5885 5885 5885 5885 5885 5885 5885 5885
5895 5895 5895 5894 5894 5893 5893 5892 5892 5892 5891 5891 5890 5890 5889 5889 5889 5888 5888 5887 5887 5886 5886 5885 5885 5885 5884 5884 5884 5884 5884 5884 5884 5883 5883 5882 5882 5882 5882 5882 5882 5883 5883
5893 5893 5892 5892 5892 5891 5891 5890 5890 5889 5889 5888 5888 5887 5887 5886 5886 5885 5885 5884 5884 5883 5883 5882 5882 5881 5881 5880 5880 5880 5881 5881 5881 5880 5880 5880 5880 5880 5880 5880 5880 5880 5881
5890 5890 5890 5890 5890 5889 5889 5888 5888 5887 5886 5886 5885 5884 5883 5883 5882 5882 5882 5881 5881 5880 5879 5879 5878 5877 5877 5877 5877 5877 5877 5877 5877 5877 5876 5876 5876 5876 5877 5877 5877 5877 5878
5888 5888 5888 5887 5887 5887 5886 5886 5885 5884 5884 5883 5882 5881 5880 5880 5879 5879 5878 5877 5877 5876 5875 5875 5874 5874 5873 5873 5873 5873 5873 5873 5873 5873 5873 5873 5872 5873 5873 5874 5874 5874 5875
5885 5885 5885 5884 5884 5884 5883 5883 5882 5881 5880 5879 5878 5878 5877 5876 5875 5875 5874 5873 5872 5872 5871 5870 5870 5869 5869 5869 5869 5869 5869 5869 5869 5869 5869 5869 5869 5869 5869 5870 5870 5871 5871
5882 5882 5882 5882 5881 5881 5880 5880 5879 5878 5877 5876 5875 5874 5873 5872 5871 5870 5869 5869 5868 5867 5866 5866 5865 5865 5865 5864 5864 5864 5864 5864 5864 5864 5864 5864 5864 5864 5865 5865 5866 5866 5867
5879 5878 5878 5878 5878 5877 5877 5876 5876 5875 5874 5872 5871 5870 5869 5868 5867 5866 5865 5864 5863 5862 5862 5861 5861 5860 5860 5859 5859 5859 5859 5859 5859 5859 5860 5860 5860 5860 5860 5860 5861 5862 5862
5875 5875 5875 5875 5874 5874 5873 5872 5872 5871 5870 5868 5867 5866 5865 5864 5862 5861 5861 5859 5858 5857 5857 5856 5856 5855 5855 5854 5854 5854 5854 5854 5854 5854 5854 5854 5854 5854 5854 5855 5855 5856 5857
5872 5871 5871 5871 5871 5870 5869 5869 5868 5867 5865 5864 5863 5862 5860 5859 5858 5857 5855 5854 5853 5852 5851 5850 5850 5850 5849 5849 5848 5848 5848 5848 5848 5848 5848 5848 5848 5849 5849 5849 5850 5850 5852
5868 5868 5868 5867 5867 5866 5866 5865 5864 5862 5861 5860 5858 5857 5855 5854 5853 5851 5850 5849 5848 5846 5845 5845 5844 5844 5844 5843 5843 5842 5842 5842 5842 5842 5842 5842 5842 5842 5843 5843 5844 5844 5846
5865 5864 5864 5863 5863 5862 5861 5860 5859 5858 5856 5855 5854 5852 5850 5849 5847 5846 5844 5843 5842 5841 5839 5838 5838 5837 5837 5837 5836 5836 5836 5835 5835 5836 5836 5836 5836 5836 5836 5837 5838 5839 5840
5861 5861 5860 5859 5858 5858 5857 5855 5854 5853 5851 5850 5848 5846 5845 5843 5841 5840 5839 5837 5836 5835 5834 5832 5831 5831 5830 5830 5830 5829 5829 5829 5829 5829 5829 5829 5830 5830 5830 5831 5832 5833 5834
5857 5856 5855 5855 5854 5853 5852 5851 5849 5848 5846 5845 5843 5841 5839 5837 5836 5834 5833 5831 5830 5829 5827 5826 5825 5824 5823 5823 5823 5822 5822 5822 5822 5822 5822 5823 5823 5823 5824 5824 5825 5826 5827
5853 5852 5851 5850 5849 5848 5847 5845 5844 5842 5841 5839 5837 5836 5834 5832 5830 5828 5827 5825 5823 5822 5821 5819 5818 5817 5816 5816 5815 5815 5815 5815 5815 5815 5815 5815 5815 5816 5817 5818 5818 5819 5821
5848 5847 5846 5845 5844 5843 5842 5840 5839 5837 5835 5834 5832 5830 5828 5826 5824 5822 5820 5818 5816 5815 5813 5812 5810 5809 5808 5808 5808 5808 5808 5807 5807 5808 5808 5808 5808 5809 5810 5811 5812 5813 5814
5844 5843 5842 5840 5839 5838 5836 5834 5833 5831 5829 5828 5826 5824 5822 5820 5818 5815 5813 5811 5809 5807 5805 5804 5802 5801 5800 5800 5800 5800 5800 5800 5800 5800 5800 5801 5801 5802 5803 5804 5805 5806 5807
5839 5838 5837 5835 5833 5832 5830 5829 5827 5826 5824 5822 5820 5818 5816 5814 5811 5809 5806 5803 5801 5799 5797 5795 5794 5793 5792 5791 5791 5791 5791 5792 5792 5792 5792 5793 5793 5794 5795 5796 5797 5799 5800
5835 5832 5831 5830 5828 5826 5825 5823 5822 5820 5818 5816 5814 5812 5809 5807 5804 5802 5799 5796 5794 5791 5789 5787 5785 5784 5783 5783 5783 5782 5783 5783 5784 5784 5785 5785 5785 5786 5787 5789 5790 5791 5793
5829 5827 5826 5825 5823 5821 5819 5818 5816 5814 5812 5810 5808 5805 5802 5800 5797 5794 5791 5788 5786 5784 5781 5779 5777 5776 5775 5775 5774 5774 5774 5774 5774 5775 5776 5776 5777 5778 5779 5781 5782 5783 5785
5824 5823 5821 5820 5818 5816 5814 5812 5810 5808 5806 5803 5801 5798 5796 5793 5790 5787 5784 5781 5779 5776 5774 5771 5770 5768 5768 5767 5766 5765 5765 5765 5765 5766 5767 5768 5768 5769 5771 5772 5773 5775 5777